[Iaude] MPEC S130: 2017 SV11 [a=2.36,e=0.53,i=6.6,H=24.0]

mpec at mpcdb1.cfa.harvard.edu mpec at mpcdb1.cfa.harvard.edu
Mon Sep 25 16:37:16 EDT 2017


M.P.E.C. 2017-S130                               Issued 2017 Sept. 25, 20:27 UT
 
     The Minor Planet Electronic Circulars contain information on unusual
         minor planets and routine data on comets.  They are published
    on behalf of Division F of the International Astronomical Union by the
          Minor Planet Center, Smithsonian Astrophysical Observatory,
                          Cambridge, MA 02138, U.S.A.

             Prepared using the Tamkin Foundation Computer Network

                              MPC at CFA.HARVARD.EDU
            URL http://www.minorplanetcenter.net/    ISSN 1523-6714


                                   2017 SV11
 
Observations:
     K17S11V* C2017 09 21.46369 23 26 28.657+11 53 45.84         21.1 wLES130F51
     K17S11V  C2017 09 21.47606 23 26 29.808+11 54 50.57         20.8 wLES130F51
     K17S11V  C2017 09 21.48849 23 26 30.966+11 55 55.69         20.5 wLES130F51
     K17S11V  C2017 09 21.50091 23 26 32.148+11 57 00.61         20.7 wLES130F51
     K17S11V KC2017 09 22.05186 23 27 38.93 +12 45 11.6                UES130J95
     K17S11V KC2017 09 22.05595 23 27 39.29 +12 45 33.4                UES130J95
     K17S11V KC2017 09 22.06014 23 27 39.74 +12 45 54.9          20.5 GUES130J95
     K17S11V KC2017 09 22.16842 23 27 57.10 +12 55 43.4          20.4 RqES130G58
     K17S11V KC2017 09 22.17406923 27 55.93 +12 56 16.2          20.7 VuES130H21
     K17S11V KC2017 09 22.18360 23 27 58.75 +12 57 05.0          19.6 RqES130G58
     K17S11V KC2017 09 22.18477823 27 57.01 +12 57 13.8          21.1 VuES130H21
     K17S11V KC2017 09 22.19421723 27 57.95 +12 58 04.5          20.7 VuES130H21
     K17S11V KC2017 09 22.20032 23 28 00.51 +12 58 35.5          20.4 RqES130G58
     K17S11V  C2017 09 22.30541 23 28 10.42 +13 08 09.0          20.0 RoES130926
     K17S11V  C2017 09 22.30853 23 28 10.72 +13 08 25.7          20.0 RoES130926
     K17S11V  C2017 09 22.31167 23 28 11.04 +13 08 42.4          20.1 RoES130926
     K17S11V _C2017 09 22.33677923 28 16.669+13 11 09.27         20.5 GUES130568
     K17S11V _C2017 09 22.33782323 28 16.770+13 11 14.86         20.5 GUES130568
     K17S11V _C2017 09 22.33876523 28 16.864+13 11 20.00         20.4 GUES130568
     K17S11V  C2017 09 23.15309 23 29 59.88 +14 24 31.1          20.5 RoES130926
     K17S11V  C2017 09 23.15990 23 30 00.67 +14 25 08.7          20.4 RoES130926
     K17S11V  C2017 09 23.16683 23 30 01.40 +14 25 47.2          20.4 RoES130926
     K17S11V  C2017 09 24.16578 23 32 12.39 +15 57 25.3          20.7 VqES130I52
     K17S11V  C2017 09 24.16702 23 32 12.55 +15 57 32.5                qES130I52
     K17S11V  C2017 09 24.17364 23 32 13.32 +15 58 09.8                qES130I52
     K17S11V  C2017 09 24.26310 23 32 23.34 +16 06 30.3          20.4 VqES130G96
     K17S11V  C2017 09 24.26928 23 32 24.03 +16 07 04.8          20.4 VqES130G96
     K17S11V  C2017 09 24.27549 23 32 24.72 +16 07 39.9          20.7 VqES130G96
     K17S11V  C2017 09 24.28169 23 32 25.40 +16 08 14.3          21.0 VqES130G96
     K17S11V  C2017 09 25.24810 23 34 40.11 +17 38 29.0          20.5 VqES130I52
     K17S11V  C2017 09 25.24943 23 34 40.24 +17 38 36.3          20.2 VqES130I52
     K17S11V  C2017 09 25.25073 23 34 40.40 +17 38 43.8          20.6 VqES130I52
     K17S11V  C2017 09 25.25201 23 34 40.52 +17 38 51.4          19.7 VqES130I52
     K17S11V KC2017 09 25.52861 23 35 21.10 +18 04 52.0          21.0 RrES130P93
     K17S11V KC2017 09 25.53451 23 35 21.88 +18 05 25.3          20.9 RrES130P93
     K17S11V KC2017 09 25.54040 23 35 22.50 +18 05 58.6          20.9 RrES130P93
 
Observer details:
568 Mauna Kea.  Observers R. J. Wainscoat, D. Woodworth.  Measurers M. Micheli,
    R. Weryk.  3.6-m Canada-France-Hawaii Telescope + CCD.
926 Tenagra II Observatory.  Observers M. Schwartz, P. R. Holvorcem.  Measurer
    M. Schwartz.  0.81-m f/7 Ritchey-Chretien + CCD.
F51 Pan-STARRS 1, Haleakala.  Observers J. Bulger, T. Lowe, A. Schultz,
    M. Willman.  Measurers K. Chambers, S. Chastel, L. Denneau, H. Flewelling,
    M. Huber, E. Lilly, E. Magnier, R. Wainscoat, C. Waters, R. Weryk.  1.8-m
    Ritchey-Chretien + CCD.
G58 Chabot Space and Science Center, Oakland.  Observer G. McKeegan.  0.9-m
    f/4.5 Cassegrain + CCD.
G96 Mt. Lemmon Survey.  Observer A. R. Gibbs.  Measurers E. J. Christensen,
    D. C. Fuls, A. R. Gibbs, A. D. Grauer, J. A. Johnson, R. A. Kowalski,
    S. M. Larson, G. J. Leonard, R. G. Matheny, R. L. Seaman, F. C. Shelly.
    1.5-m reflector + 10K CCD.
H21 Astronomical Research Observatory, Westfield.  Observer R. Holmes.
    Measurers S. Foglia, L. Buzzi, T. Linder, R. Holmes.  0.76-m f/3.0
    astrograph + CCD.
I52 Steward Observatory, Mt. Lemmon Station.  Observers G. J. Leonard,
    D. C. Fuls.  Measurers E. J. Christensen, D. C. Fuls, A. R. Gibbs,
    A. D. Grauer, J. A. Johnson, R. A. Kowalski, S. M. Larson, G. J. Leonard,
    R. G. Matheny, R. L. Seaman, F. C. Shelly.  1.0-m reflector + CCD.
J95 Great Shefford.  Observer P. Birtwhistle.  0.40-m f/6.0 Schmidt-Cassegrain
    + CCD.
P93 Space Tracking and Communications Center, JAXA.  Observers S. Okumura,
    S. Urakawa.  1.0-m f/3.0 reflector + CCD.
 
Orbital elements:
2017 SV11                                                Earth MOID = 0.1220 AU
Epoch 2017 Sept. 4.0 TT = JDT 2458000.5                 MPC
M 349.17896              (2000.0)            P               Q
n   0.27176072     Peri.   37.80988     +0.92936959     -0.36774781
a   2.3605412      Node   343.67712     +0.30462436     +0.81319966
e   0.5329862      Incl.    6.56891     +0.20850940     +0.45107413
P   3.63           H   24.0           G   0.15           U   7
Residuals in seconds of arc
170921 F51  0.1-  0.0     170922 G58  0.1+  0.6-    170924 I52  0.2-  0.1-
170921 F51  0.0   0.1-    170922 926  0.1-  0.2+    170924 G96  0.0   0.2-
170921 F51  0.2-  0.0     170922 926  0.2-  0.2+    170924 G96  0.2+  0.1-
170921 F51  0.1-  0.0     170922 926  0.1-  0.1+    170924 G96  0.3+  0.4+
170922 J95  0.8+  0.2+    170922 568  0.3+  0.3+    170924 G96  0.2+  0.3+
170922 J95  0.3-  0.3+    170922 568  0.3+  0.2+    170925 I52  0.3+  0.5-
170922 J95  0.1-  0.4-    170922 568  0.3+  0.2+    170925 I52  0.1-  0.7-
170922 G58  0.2-  0.3-    170923 926  0.2-  0.1+    170925 I52  0.0   0.6-
170922 H21  0.0   0.1-    170923 926  0.3+  0.1+    170925 I52  0.4-  0.2-
170922 G58  0.2+  0.7-    170923 926  0.1-  0.4+    170925 P93  0.2-  1.0+
170922 H21  0.0   0.0     170924 I52  0.5-  0.5-    170925 P93  0.7+  0.6+
170922 H21  0.0   0.0     170924 I52  0.3-  0.3-    170925 P93  0.6-  0.3+

Ephemeris:
2017 SV11                a,e,i = 2.36, 0.53, 7                   q = 1.1024
Date    TT    R. A. (2000) Decl.     Delta      r     Elong.  Phase     V
2017 08 26    22 56 08.9 -13 05 55   0.2340  1.2420   170.5     7.7    21.9
...
2017 09 10    23 09 19.1 -02 15 43   0.1661  1.1729   177.1     2.5    20.7
...
2017 09 18    23 20 16.7 +07 03 02   0.1415  1.1443   169.5     9.2    20.7
...
2017 09 24    23 31 47.5 +15 42 25   0.1293  1.1274   162.8    15.3    20.7
2017 09 25    23 34 04.2 +17 15 25   0.1279  1.1250   161.6    16.3    20.7
2017 09 26    23 36 27.9 +18 49 44   0.1265  1.1227   160.4    17.4    20.7
...
2017 10 02    23 53 30.5 +28 27 16   0.1221  1.1114   153.4    23.8    20.8
...
2017 10 10    00 24 08.1 +40 22 50   0.1248  1.1033   145.1    31.1    21.0
...
2017 10 25    01 41 17.1 +54 04 02   0.1503  1.1104   137.8    37.0    21.6

A. U. Tomatic                (C) Copyright 2017 MPC           M.P.E.C. 2017-S130




More information about the Iaude mailing list